BON968 KLAX-VHHH

Flight info

Callsign BON968
Flight time N/A
Altitude 30000
Route SUMMR2 RIZIN DCT RZS J501 PYE J143 ENI C1486 VESPA DCT 42N30 DCT 45N137W 48N147W/N0484F320 50N159W 51N171W DCT ADK R451 POWAL/N0479F340 R451 HIXOR M523 IPGUD/N0479F360 Y800 ESNIP Y810 OLDIV Y802 LIGNI Y84 SAMUS T844 BUBDO A590 MDE V75 TOPAT/N0478F380 V75 NHC V91 MJC G581 ELATO V522 ABBEY
Aircraft B77L/H-SDE1E2E3FGHIJ2J3J4J5M1RWXYZ/LB1D1

Departure

Time N/A
Airport Los Angeles International Airport (KLAX)

Arrival

Time 2026-05-05 07:38
Airport Hong Kong International Airport (VHHH)
Time Latitude Longitude Altitude Speed Heading
2026-05-05 05:18 26.08215 128.63760 40110 ft 413 kts 275°
2026-05-05 05:19 26.09041 128.57427 40112 ft 414 kts 275°
2026-05-05 05:19 26.09864 128.51092 40109 ft 414 kts 275°
2026-05-05 05:20 26.10685 128.44753 40112 ft 414 kts 275°
2026-05-05 05:20 26.11499 128.38442 40111 ft 415 kts 275°
2026-05-05 05:21 26.12318 128.32085 40111 ft 415 kts 275°
2026-05-05 05:21 26.13002 128.26745 40111 ft 416 kts 275°
2026-05-05 05:22 26.13810 128.20419 40109 ft 416 kts 275°
2026-05-05 05:22 26.14621 128.14043 40116 ft 416 kts 275°
2026-05-05 05:23 26.15431 128.07659 40121 ft 417 kts 275°
2026-05-05 05:23 26.16238 128.01275 40120 ft 417 kts 275°
2026-05-05 05:24 26.17043 127.94879 40120 ft 417 kts 275°
2026-05-05 05:24 26.17845 127.88485 40111 ft 417 kts 275°
2026-05-05 05:25 26.18645 127.82081 40113 ft 417 kts 275°
2026-05-05 05:25 26.19441 127.75689 40113 ft 417 kts 275°
2026-05-05 05:26 26.20184 127.69297 40105 ft 414 kts 269°
2026-05-05 05:26 26.19302 127.63038 40110 ft 411 kts 253°
2026-05-05 05:27 26.16828 127.57311 40113 ft 414 kts 239°
2026-05-05 05:27 26.11923 127.49374 40103 ft 415 kts 239°
2026-05-05 05:28 26.08703 127.44039 40102 ft 415 kts 239°
2026-05-05 05:28 26.05520 127.38739 40101 ft 415 kts 239°
2026-05-05 05:29 26.02303 127.33413 40102 ft 415 kts 239°
2026-05-05 05:29 25.99085 127.28092 40102 ft 415 kts 239°
2026-05-05 05:30 25.95863 127.22767 40097 ft 416 kts 239°
2026-05-05 05:30 25.92631 127.17432 40104 ft 416 kts 239°
2026-05-05 05:31 25.89391 127.12087 40102 ft 417 kts 239°
2026-05-05 05:31 25.86143 127.06736 40102 ft 418 kts 239°
2026-05-05 05:32 25.82886 127.01376 40102 ft 419 kts 239°
2026-05-05 05:32 25.79623 126.96013 40096 ft 420 kts 239°
2026-05-05 05:33 25.76354 126.90644 40092 ft 420 kts 239°
2026-05-05 05:33 25.73087 126.85282 40092 ft 420 kts 239°
2026-05-05 05:34 25.69827 126.79908 40092 ft 420 kts 239°
2026-05-05 05:34 25.66571 126.74540 40092 ft 419 kts 239°
2026-05-05 05:35 25.63315 126.69179 40087 ft 419 kts 239°
2026-05-05 05:35 25.60057 126.63823 40082 ft 419 kts 239°
2026-05-05 05:36 25.56804 126.58481 40083 ft 418 kts 239°
2026-05-05 05:36 25.53608 126.53238 40083 ft 418 kts 239°
2026-05-05 05:37 25.50341 126.47874 40079 ft 418 kts 239°
2026-05-05 05:37 25.47131 126.42567 40080 ft 417 kts 239°
2026-05-05 05:38 25.43901 126.37229 40081 ft 417 kts 239°
2026-05-05 05:38 25.40674 126.31903 40075 ft 417 kts 239°
2026-05-05 05:39 25.37441 126.26577 40055 ft 417 kts 239°
2026-05-05 05:39 25.34205 126.21251 40060 ft 417 kts 239°
2026-05-05 05:40 25.30966 126.15924 40074 ft 417 kts 239°
2026-05-05 05:40 25.27721 126.10598 40071 ft 418 kts 239°
2026-05-05 05:41 25.24469 126.05269 40071 ft 418 kts 239°
2026-05-05 05:41 25.21219 125.99950 40057 ft 419 kts 239°
2026-05-05 05:42 25.17954 125.94612 40051 ft 419 kts 239°
2026-05-05 05:42 25.14692 125.89281 40054 ft 419 kts 239°
2026-05-05 05:43 25.11423 125.83945 40062 ft 420 kts 239°
2026-05-05 05:43 25.08172 125.78644 40060 ft 420 kts 239°
2026-05-05 05:44 25.04895 125.73310 40039 ft 421 kts 239°
2026-05-05 05:44 25.01605 125.67966 40051 ft 421 kts 239°
2026-05-05 05:45 24.98318 125.62632 40045 ft 421 kts 239°
2026-05-05 05:45 24.95019 125.57280 40044 ft 422 kts 239°
2026-05-05 05:46 24.91720 125.51934 40041 ft 422 kts 239°
2026-05-05 05:46 24.88416 125.46586 40046 ft 423 kts 239°
2026-05-05 05:47 24.85104 125.41231 40050 ft 423 kts 239°
2026-05-05 05:47 24.81793 125.35884 40051 ft 423 kts 239°
2026-05-05 05:48 24.78474 125.30528 40039 ft 423 kts 239°
2026-05-05 05:48 24.75133 125.25191 40040 ft 424 kts 238°
2026-05-05 05:49 24.71758 125.19868 40040 ft 424 kts 238°
2026-05-05 05:49 24.68383 125.14549 40044 ft 424 kts 238°
2026-05-05 05:50 24.65013 125.09235 40032 ft 424 kts 238°
2026-05-05 05:50 24.61633 125.03906 40029 ft 424 kts 238°
2026-05-05 05:51 24.58259 124.98592 40031 ft 424 kts 238°
2026-05-05 05:51 24.54901 124.93308 40035 ft 424 kts 238°
2026-05-05 05:52 24.51524 124.88001 40041 ft 424 kts 238°
2026-05-05 05:52 24.48145 124.82697 40046 ft 424 kts 238°
2026-05-05 05:53 24.44764 124.77395 40041 ft 424 kts 238°
2026-05-05 05:53 24.41377 124.72088 40046 ft 425 kts 238°
2026-05-05 05:54 24.37985 124.66781 40039 ft 425 kts 238°
2026-05-05 05:54 24.34586 124.61468 40035 ft 425 kts 238°
2026-05-05 05:55 24.31182 124.56152 40039 ft 426 kts 238°
2026-05-05 05:55 24.27774 124.50837 40040 ft 426 kts 238°
2026-05-05 05:56 24.24358 124.45514 40034 ft 427 kts 238°
2026-05-05 05:56 24.20937 124.40191 40023 ft 427 kts 238°
2026-05-05 05:57 24.17515 124.34871 40030 ft 427 kts 238°
2026-05-05 05:57 24.14094 124.29557 40026 ft 428 kts 238°
2026-05-05 05:58 24.10658 124.24226 40025 ft 428 kts 238°
2026-05-05 05:58 24.07242 124.18933 40029 ft 428 kts 238°
2026-05-05 05:59 24.03803 124.13608 40029 ft 429 kts 238°
2026-05-05 05:59 24.00361 124.08284 40021 ft 429 kts 238°
2026-05-05 06:00 23.96916 124.02960 40019 ft 429 kts 238°
2026-05-05 06:00 23.93484 123.97624 40017 ft 429 kts 238°
2026-05-05 06:01 23.90136 123.92236 40018 ft 428 kts 239°
2026-05-05 06:01 23.86797 123.86837 40019 ft 428 kts 239°
2026-05-05 06:02 23.83453 123.81454 40019 ft 428 kts 239°
2026-05-05 06:02 23.80099 123.76072 40019 ft 428 kts 239°
2026-05-05 06:03 23.76748 123.70705 40016 ft 428 kts 239°
2026-05-05 06:03 23.73386 123.65326 40019 ft 428 kts 238°
2026-05-05 06:04 23.70024 123.59952 40020 ft 429 kts 238°
2026-05-05 06:04 23.66656 123.54575 40020 ft 429 kts 238°
2026-05-05 06:05 23.63288 123.49203 40017 ft 429 kts 238°
2026-05-05 06:05 23.59934 123.43859 40019 ft 430 kts 238°
2026-05-05 06:06 23.56550 123.38474 40018 ft 430 kts 238°
2026-05-05 06:06 23.53166 123.33092 40018 ft 431 kts 238°
2026-05-05 06:07 23.49772 123.27702 40019 ft 431 kts 238°
2026-05-05 06:07 23.46380 123.22321 40018 ft 432 kts 238°
2026-05-05 06:08 23.42973 123.16920 40018 ft 432 kts 238°
2026-05-05 06:08 23.39568 123.11528 40019 ft 433 kts 238°
2026-05-05 06:09 23.36154 123.06128 40018 ft 433 kts 238°
2026-05-05 06:09 23.32735 123.00725 40018 ft 433 kts 238°
2026-05-05 06:10 23.29315 122.95332 40019 ft 433 kts 238°
2026-05-05 06:10 23.25891 122.89941 40018 ft 433 kts 238°
2026-05-05 06:11 23.22484 122.84579 40011 ft 434 kts 238°
2026-05-05 06:11 23.19057 122.79192 40009 ft 433 kts 238°
2026-05-05 06:12 23.16180 122.74672 40007 ft 433 kts 238°
2026-05-05 06:12 23.12773 122.69325 40009 ft 433 kts 238°
2026-05-05 06:13 23.09341 122.63943 40010 ft 434 kts 238°
2026-05-05 06:13 23.05900 122.58554 39997 ft 434 kts 238°
2026-05-05 06:14 23.02460 122.53171 39988 ft 434 kts 238°
2026-05-05 06:14 22.99019 122.47794 39996 ft 434 kts 238°
2026-05-05 06:15 22.95574 122.42415 39999 ft 434 kts 238°
2026-05-05 06:15 22.92130 122.37044 40001 ft 434 kts 238°
2026-05-05 06:16 22.88678 122.31666 39993 ft 434 kts 238°
2026-05-05 06:16 22.85223 122.26290 39986 ft 435 kts 238°
2026-05-05 06:17 22.81760 122.20906 39989 ft 435 kts 238°
2026-05-05 06:17 22.78299 122.15530 39992 ft 436 kts 238°
2026-05-05 06:18 22.74826 122.10138 39995 ft 436 kts 237°
2026-05-05 06:18 22.71343 122.04741 39975 ft 437 kts 237°
2026-05-05 06:19 22.67861 121.99349 39980 ft 437 kts 237°
2026-05-05 06:19 22.64396 121.93989 39982 ft 438 kts 237°
2026-05-05 06:20 22.60904 121.88592 39985 ft 438 kts 237°
2026-05-05 06:20 22.57403 121.83188 39987 ft 438 kts 237°
2026-05-05 06:21 22.53907 121.77796 39983 ft 438 kts 237°
2026-05-05 06:21 22.50409 121.72407 39996 ft 437 kts 237°
2026-05-05 06:22 22.46911 121.67022 39986 ft 438 kts 237°
2026-05-05 06:22 22.43409 121.61640 39993 ft 438 kts 237°
2026-05-05 06:23 22.39902 121.56253 39987 ft 438 kts 237°
2026-05-05 06:23 22.36392 121.50868 39987 ft 439 kts 237°
2026-05-05 06:24 22.32878 121.45482 39996 ft 439 kts 237°
2026-05-05 06:24 22.29366 121.40104 39994 ft 438 kts 237°
2026-05-05 06:25 22.25850 121.34723 39987 ft 438 kts 237°
2026-05-05 06:25 22.22334 121.29349 39994 ft 438 kts 237°
2026-05-05 06:26 22.18819 121.23983 39992 ft 438 kts 237°
2026-05-05 06:26 22.15300 121.18617 39992 ft 438 kts 237°
2026-05-05 06:27 22.10043 121.10607 39992 ft 438 kts 237°
2026-05-05 06:28 22.06522 121.05248 39986 ft 437 kts 237°
2026-05-05 06:28 22.03003 120.99900 39977 ft 437 kts 237°
2026-05-05 06:29 21.99482 120.94544 39963 ft 437 kts 237°
2026-05-05 06:29 21.95965 120.89198 39957 ft 437 kts 238°
2026-05-05 06:29 21.94526 120.86350 39960 ft 432 kts 251°
2026-05-05 06:30 21.93721 120.83239 39969 ft 431 kts 260°
2026-05-05 06:30 21.93607 120.76807 39978 ft 432 kts 276°
2026-05-05 06:31 21.94511 120.70381 39974 ft 435 kts 277°
2026-05-05 06:31 21.95433 120.63922 39964 ft 437 kts 277°
2026-05-05 06:32 21.96307 120.57436 39957 ft 438 kts 276°
2026-05-05 06:32 21.97156 120.50928 39954 ft 439 kts 276°
2026-05-05 06:33 21.97998 120.44408 39955 ft 440 kts 276°
2026-05-05 06:33 21.98834 120.37931 39952 ft 439 kts 276°
2026-05-05 06:34 21.99674 120.31416 39949 ft 439 kts 276°
2026-05-05 06:34 22.00509 120.24914 39953 ft 437 kts 276°
2026-05-05 06:35 22.01339 120.18429 39950 ft 436 kts 276°
2026-05-05 06:35 22.02165 120.11960 39946 ft 436 kts 276°
2026-05-05 06:36 22.02987 120.05501 39944 ft 435 kts 276°
2026-05-05 06:36 22.03801 119.99029 39940 ft 435 kts 276°
2026-05-05 06:37 22.04611 119.92576 39953 ft 434 kts 276°
2026-05-05 06:37 22.05425 119.86133 39954 ft 434 kts 276°
2026-05-05 06:38 22.06239 119.79684 39956 ft 434 kts 276°
2026-05-05 06:38 22.07048 119.73231 39956 ft 434 kts 276°
2026-05-05 06:39 22.07854 119.66777 39955 ft 435 kts 276°
2026-05-05 06:39 22.08657 119.60324 39956 ft 435 kts 276°
2026-05-05 06:40 22.09457 119.53857 39946 ft 435 kts 276°
2026-05-05 06:40 22.10254 119.47394 39943 ft 435 kts 276°
2026-05-05 06:41 22.11048 119.40931 39945 ft 434 kts 276°
2026-05-05 06:41 22.11834 119.34518 39943 ft 434 kts 276°
2026-05-05 06:42 22.12623 119.28055 39945 ft 434 kts 276°
2026-05-05 06:42 22.13407 119.21607 39942 ft 434 kts 276°
2026-05-05 06:43 22.14190 119.15163 39953 ft 433 kts 276°
2026-05-05 06:43 22.14968 119.08729 39956 ft 432 kts 276°
2026-05-05 06:44 22.15746 119.02313 39954 ft 432 kts 276°
2026-05-05 06:44 22.16523 118.95900 39955 ft 431 kts 276°
2026-05-05 06:45 22.17291 118.89477 39954 ft 431 kts 276°
2026-05-05 06:45 22.18053 118.83071 39954 ft 431 kts 276°
2026-05-05 06:46 22.18815 118.76658 39955 ft 431 kts 276°
2026-05-05 06:46 22.19574 118.70247 39961 ft 430 kts 276°
2026-05-05 06:47 22.20329 118.63845 39985 ft 430 kts 276°
2026-05-05 06:47 22.21079 118.57471 39995 ft 431 kts 276°
2026-05-05 06:48 22.21829 118.51060 39990 ft 431 kts 276°
2026-05-05 06:48 22.22580 118.44632 39995 ft 431 kts 276°
2026-05-05 06:49 22.23330 118.38206 39989 ft 432 kts 276°
2026-05-05 06:49 22.24078 118.31773 39992 ft 432 kts 276°
2026-05-05 06:50 22.24822 118.25339 40001 ft 432 kts 276°
2026-05-05 06:50 22.25565 118.18900 40003 ft 432 kts 276°
2026-05-05 06:51 22.26303 118.12462 40000 ft 433 kts 276°
2026-05-05 06:51 22.27014 118.06002 40000 ft 433 kts 276°
2026-05-05 06:52 22.27719 117.99555 40000 ft 433 kts 276°
2026-05-05 06:52 22.28453 117.93101 40000 ft 433 kts 276°
2026-05-05 06:53 22.29195 117.86657 40000 ft 433 kts 276°
2026-05-05 06:53 22.29931 117.80208 40002 ft 433 kts 276°
2026-05-05 06:54 22.30662 117.73763 40009 ft 432 kts 276°
2026-05-05 06:54 22.31391 117.67316 40010 ft 432 kts 276°
2026-05-05 06:55 22.32115 117.60879 40009 ft 432 kts 276°
2026-05-05 06:55 22.32837 117.54445 40011 ft 431 kts 276°
2026-05-05 06:56 22.33345 117.48009 40014 ft 430 kts 269°
2026-05-05 06:56 22.33226 117.41556 40008 ft 430 kts 268°
2026-05-05 06:57 22.33084 117.35103 40011 ft 429 kts 268°
2026-05-05 06:57 22.32955 117.28661 40008 ft 429 kts 269°
2026-05-05 06:58 22.32833 117.22226 40009 ft 429 kts 269°
2026-05-05 06:58 22.32711 117.15831 40008 ft 429 kts 269°
2026-05-05 06:59 22.32586 117.09350 40009 ft 428 kts 269°
2026-05-05 06:59 22.32460 117.02962 40011 ft 428 kts 268°
2026-05-05 07:00 22.32331 116.96530 40009 ft 428 kts 268°
2026-05-05 07:00 22.32199 116.90104 40009 ft 428 kts 269°
2026-05-05 07:01 22.32086 116.84721 40009 ft 428 kts 269°
2026-05-05 07:01 22.31927 116.77248 40010 ft 428 kts 269°
2026-05-05 07:02 22.31811 116.71910 40009 ft 428 kts 268°
2026-05-05 07:02 22.31669 116.65479 40010 ft 428 kts 268°
2026-05-05 07:03 22.31524 116.59044 40010 ft 429 kts 269°
2026-05-05 07:03 22.31377 116.52611 40009 ft 429 kts 269°
2026-05-05 07:04 22.31228 116.46170 40009 ft 429 kts 269°
2026-05-05 07:04 22.31075 116.39731 40008 ft 429 kts 268°
2026-05-05 07:05 22.30920 116.33279 40011 ft 430 kts 269°
2026-05-05 07:05 22.30763 116.26830 40008 ft 429 kts 269°
2026-05-05 07:06 22.30603 116.20441 39379 ft 424 kts 269°
2026-05-05 07:06 22.30523 116.17277 38792 ft 421 kts 268°
2026-05-05 07:06 22.30444 116.14122 38083 ft 421 kts 268°
2026-05-05 07:06 22.30364 116.10961 37379 ft 420 kts 268°
2026-05-05 07:07 22.30284 116.07857 36635 ft 420 kts 268°
2026-05-05 07:07 22.30203 116.04701 35860 ft 420 kts 268°
2026-05-05 07:07 22.30120 116.01546 35015 ft 421 kts 268°
2026-05-05 07:07 22.30037 115.98372 34124 ft 424 kts 268°
2026-05-05 07:08 22.29952 115.95181 33197 ft 426 kts 268°
2026-05-05 07:08 22.29867 115.91976 32231 ft 429 kts 268°
2026-05-05 07:08 22.29780 115.88743 31218 ft 432 kts 267°
2026-05-05 07:08 22.29692 115.85492 30152 ft 435 kts 267°
2026-05-05 07:09 22.29603 115.82218 29175 ft 436 kts 267°
2026-05-05 07:09 22.29516 115.78966 28360 ft 433 kts 267°
2026-05-05 07:09 22.29432 115.75726 27562 ft 429 kts 267°
2026-05-05 07:09 22.29349 115.72514 26786 ft 425 kts 268°
2026-05-05 07:10 22.29264 115.69340 26028 ft 421 kts 268°
2026-05-05 07:10 22.29179 115.66205 25503 ft 416 kts 268°
2026-05-05 07:10 22.29094 115.63069 24991 ft 420 kts 268°
2026-05-05 07:10 22.29007 115.59899 24468 ft 424 kts 268°
2026-05-05 07:11 22.28919 115.56717 23933 ft 423 kts 268°
2026-05-05 07:11 22.28832 115.53560 23412 ft 419 kts 268°
2026-05-05 07:11 22.28745 115.50431 22884 ft 415 kts 268°
2026-05-05 07:11 22.28658 115.47320 22372 ft 412 kts 268°
2026-05-05 07:12 22.28572 115.44242 21856 ft 409 kts 268°
2026-05-05 07:12 22.28484 115.41182 21358 ft 406 kts 268°
2026-05-05 07:12 22.28397 115.38146 20855 ft 404 kts 267°
2026-05-05 07:12 22.28311 115.35135 20358 ft 402 kts 267°
2026-05-05 07:13 22.28222 115.32105 19859 ft 400 kts 267°
2026-05-05 07:13 22.28132 115.29121 19366 ft 399 kts 267°
2026-05-05 07:13 22.28040 115.26134 18872 ft 397 kts 267°
2026-05-05 07:13 22.27948 115.23166 18382 ft 395 kts 266°
2026-05-05 07:14 22.27856 115.20206 17892 ft 393 kts 266°
2026-05-05 07:14 22.27765 115.17265 17419 ft 391 kts 266°
2026-05-05 07:14 22.27674 115.14338 16920 ft 389 kts 266°
2026-05-05 07:14 22.27583 115.11431 16440 ft 386 kts 266°
2026-05-05 07:15 22.27490 115.08535 15962 ft 384 kts 266°
2026-05-05 07:15 22.27400 115.05673 15496 ft 381 kts 267°
2026-05-05 07:15 22.27310 115.02827 15017 ft 378 kts 266°
2026-05-05 07:15 22.27219 115.00000 14551 ft 376 kts 266°
2026-05-05 07:16 22.27128 114.97188 14084 ft 373 kts 267°
2026-05-05 07:16 22.27038 114.94402 13632 ft 371 kts 267°
2026-05-05 07:16 22.26948 114.91630 13169 ft 368 kts 267°
2026-05-05 07:16 22.26858 114.88871 12708 ft 366 kts 267°
2026-05-05 07:17 22.26767 114.86135 12255 ft 364 kts 267°
2026-05-05 07:17 22.26677 114.83427 11876 ft 357 kts 267°
2026-05-05 07:17 22.26576 114.80821 11740 ft 334 kts 263°
2026-05-05 07:17 22.26002 114.78511 11601 ft 316 kts 246°
2026-05-05 07:18 22.24914 114.76527 11506 ft 301 kts 233°
2026-05-05 07:18 22.23511 114.74912 11375 ft 289 kts 226°
2026-05-05 07:18 22.22073 114.73447 11121 ft 281 kts 225°
2026-05-05 07:18 22.20651 114.72019 10813 ft 277 kts 225°
2026-05-05 07:19 22.19248 114.70608 10561 ft 275 kts 224°
2026-05-05 07:19 22.17852 114.69195 10295 ft 276 kts 224°
2026-05-05 07:19 22.16433 114.67753 10071 ft 277 kts 224°
2026-05-05 07:19 22.15053 114.66344 9742 ft 276 kts 224°
2026-05-05 07:20 22.13647 114.64906 9300 ft 275 kts 224°
2026-05-05 07:20 22.12281 114.63505 8982 ft 273 kts 224°
2026-05-05 07:20 22.10914 114.62105 8805 ft 271 kts 223°
2026-05-05 07:20 22.09535 114.60692 8639 ft 276 kts 223°
2026-05-05 07:21 22.08138 114.59258 8462 ft 278 kts 223°
2026-05-05 07:21 22.06742 114.57825 8348 ft 276 kts 223°
2026-05-05 07:21 22.05352 114.56398 8199 ft 274 kts 224°
2026-05-05 07:21 22.04243 114.54768 7924 ft 274 kts 246°
2026-05-05 07:22 22.03847 114.52770 7489 ft 275 kts 263°
2026-05-05 07:22 22.03746 114.50706 7046 ft 276 kts 266°
2026-05-05 07:22 22.03697 114.48657 6890 ft 272 kts 266°
2026-05-05 07:22 22.03655 114.46612 6776 ft 275 kts 266°
2026-05-05 07:23 22.03615 114.44545 6706 ft 277 kts 266°
2026-05-05 07:23 22.03577 114.42460 6651 ft 278 kts 266°
2026-05-05 07:23 22.03538 114.40375 6574 ft 279 kts 266°
2026-05-05 07:23 22.03500 114.38291 6487 ft 278 kts 266°
2026-05-05 07:24 22.03464 114.36208 6420 ft 277 kts 266°
2026-05-05 07:24 22.03514 114.34139 6338 ft 277 kts 274°
2026-05-05 07:24 22.03770 114.32071 6266 ft 278 kts 276°
2026-05-05 07:24 22.04072 114.30021 6194 ft 279 kts 277°
2026-05-05 07:25 22.04378 114.27943 6099 ft 280 kts 276°
2026-05-05 07:25 22.04676 114.25873 6049 ft 278 kts 276°
2026-05-05 07:25 22.04958 114.23820 6004 ft 278 kts 276°
2026-05-05 07:25 22.05227 114.21757 5984 ft 277 kts 275°
2026-05-05 07:26 22.05492 114.19697 5983 ft 278 kts 275°
2026-05-05 07:26 22.05756 114.17630 5983 ft 280 kts 275°
2026-05-05 07:26 22.06021 114.15552 5977 ft 280 kts 275°
2026-05-05 07:26 22.06282 114.13472 5966 ft 280 kts 275°
2026-05-05 07:27 22.06543 114.11393 5972 ft 280 kts 275°
2026-05-05 07:27 22.06801 114.09317 5975 ft 279 kts 275°
2026-05-05 07:27 22.07054 114.07264 5971 ft 279 kts 275°
2026-05-05 07:27 22.07313 114.05197 5910 ft 275 kts 275°
2026-05-05 07:28 22.07566 114.03186 5703 ft 267 kts 275°
2026-05-05 07:28 22.07810 114.01213 5348 ft 264 kts 275°
2026-05-05 07:28 22.08051 113.99251 4932 ft 265 kts 276°
2026-05-05 07:28 22.08294 113.97287 4699 ft 264 kts 276°
2026-05-05 07:29 22.08529 113.95361 4566 ft 263 kts 277°
2026-05-05 07:29 22.08768 113.93402 4459 ft 266 kts 277°
2026-05-05 07:29 22.09013 113.91405 4331 ft 269 kts 277°
2026-05-05 07:29 22.09257 113.89417 4207 ft 268 kts 277°
2026-05-05 07:30 22.09503 113.87428 4089 ft 267 kts 277°
2026-05-05 07:30 22.09977 113.83586 3965 ft 246 kts 278°
2026-05-05 07:30 22.10196 113.81810 3951 ft 235 kts 278°
2026-05-05 07:31 22.10408 113.80064 3962 ft 235 kts 278°
2026-05-05 07:31 22.10727 113.78352 3899 ft 232 kts 295°
2026-05-05 07:31 22.11765 113.77067 3683 ft 227 kts 330°
2026-05-05 07:31 22.13169 113.76320 3270 ft 226 kts 338°
2026-05-05 07:32 22.14577 113.75626 2943 ft 225 kts 339°
2026-05-05 07:32 22.15976 113.74932 2748 ft 218 kts 339°
2026-05-05 07:32 22.17345 113.74254 2570 ft 216 kts 339°
2026-05-05 07:32 22.18712 113.73582 2415 ft 214 kts 341°
2026-05-05 07:33 22.20121 113.73389 2322 ft 198 kts 12°
2026-05-05 07:33 22.21367 113.73890 2234 ft 190 kts 27°
2026-05-05 07:33 22.22534 113.74551 2134 ft 188 kts 29°
2026-05-05 07:33 22.23695 113.75222 2058 ft 191 kts 30°
2026-05-05 07:34 22.24771 113.76033 1979 ft 190 kts 52°
2026-05-05 07:34 22.25383 113.77279 1987 ft 190 kts 65°
2026-05-05 07:34 22.25953 113.78571 1981 ft 189 kts 66°
2026-05-05 07:34 22.26419 113.79845 1957 ft 176 kts 70°
2026-05-05 07:35 22.26812 113.81057 1723 ft 166 kts 71°
2026-05-05 07:35 22.27179 113.82202 1524 ft 159 kts 71°
2026-05-05 07:35 22.27536 113.83311 1341 ft 156 kts 71°
2026-05-05 07:35 22.27883 113.84397 1104 ft 148 kts 71°
2026-05-05 07:36 22.28206 113.85396 925 ft 139 kts 71°
2026-05-05 07:36 22.28518 113.86372 741 ft 137 kts 71°
2026-05-05 07:36 22.28832 113.87351 571 ft 138 kts 71°
2026-05-05 07:36 22.29151 113.88339 373 ft 139 kts 72°
2026-05-05 07:37 22.29465 113.89333 209 ft 142 kts 70°
2026-05-05 07:37 22.29785 113.90306 46 ft 131 kts 71°
2026-05-05 07:37 22.30055 113.91144 43 ft 102 kts 70°
2026-05-05 07:37 22.30250 113.91745 41 ft 70 kts 71°
2026-05-05 07:38 22.30371 113.91996 42 ft 22 kts 50°
2026-05-05 07:38 22.30456 113.92083 42 ft 13 kts 39°
2026-05-05 07:38 22.30527 113.92148 42 ft 14 kts 40°
2026-05-05 07:38 22.30591 113.92231 42 ft 15 kts 66°
2026-05-05 07:39 22.30618 113.92317 42 ft 12 kts 70°
2026-05-05 07:39 22.30667 113.92374 42 ft 11 kts
2026-05-05 07:39 22.30741 113.92350 42 ft 10 kts 341°
2026-05-05 07:39 22.30816 113.92328 41 ft 12 kts 354°
2026-05-05 07:40 22.30889 113.92351 40 ft 10 kts 26°
2026-05-05 07:40 22.30951 113.92386 41 ft 10 kts 27°
2026-05-05 07:40 22.30983 113.92415 40 ft 2 kts 76°
2026-05-05 07:40 22.30981 113.92432 41 ft 3 kts 104°
2026-05-05 07:41 22.30970 113.92458 41 ft 3 kts 116°
2026-05-05 07:41 22.30959 113.92483 41 ft 3 kts 116°
2026-05-05 07:41 22.30955 113.92490 41 ft 0 kts 116°